Météo par heure à Kitale

Ce jour, 5 Mars, Vendredi

Heure Température Précipitation Vent Pression Humidité
00:00 +19°C° 0 mm 1 m/s 612 mmHg 72%
01:00 +18°C° 0 mm 1 m/s 612 mmHg 73%
02:00 +18°C° 0 mm 1 m/s 612 mmHg 74%
03:00 +18°C° 0 mm 1 m/s 612 mmHg 74%
04:00 +18°C° 0 mm 1 m/s 611 mmHg 74%
05:00 +16°C° 0 mm 1 m/s 611 mmHg 74%
06:00 +20°C° 0 mm 1 m/s 613 mmHg 66%
07:00 +21°C° 0 mm 2 m/s 614 mmHg 59%
08:00 +25°C° 0 mm 2 m/s 615 mmHg 50%
09:00 +26°C° 0.1 mm 3 m/s 615 mmHg 46%
10:00 +27°C° 0.1 mm 3 m/s 615 mmHg 42%
11:00 +29°C° 0.1 mm 4 m/s 615 mmHg 37%
12:00 +28°C° 0 mm 4 m/s 615 mmHg 39%
13:00 +28°C° 0 mm 4 m/s 614 mmHg 40%
14:00 +27°C° 0 mm 3 m/s 613 mmHg 40%
15:00 +26°C° 0 mm 2 m/s 613 mmHg 43%
16:00 +25°C° 0 mm 2 m/s 612 mmHg 47%
17:00 +24°C° 0 mm 2 m/s 612 mmHg 50%
18:00 +24°C° 0 mm 2 m/s 612 mmHg 52%
19:00 +23°C° 0 mm 2 m/s 613 mmHg 54%
20:00 +21°C° 0 mm 3 m/s 613 mmHg 57%
21:00 +20°C° 0 mm 2 m/s 613 mmHg 61%
22:00 +19°C° 0 mm 2 m/s 613 mmHg 65%
23:00 +19°C° 0 mm 1 m/s 613 mmHg 70%

Demain, 6 Mars, Samedi

Heure Température Précipitation Vent Pression Humidité
00:00 +19°C° 0 mm 1 m/s 612 mmHg 71%
01:00 +18°C° 0 mm 1 m/s 612 mmHg 72%
02:00 +18°C° 0 mm 1 m/s 611 mmHg 73%
03:00 +18°C° 0 mm 1 m/s 611 mmHg 73%
04:00 +17°C° 0 mm 2 m/s 611 mmHg 73%
05:00 +16°C° 0 mm 2 m/s 611 mmHg 73%
06:00 +19°C° 0 mm 2 m/s 613 mmHg 65%
07:00 +21°C° 0 mm 2 m/s 614 mmHg 56%
08:00 +25°C° 0 mm 2 m/s 615 mmHg 48%
09:00 +26°C° 0 mm 2 m/s 615 mmHg 42%
10:00 +28°C° 0 mm 3 m/s 616 mmHg 36%
11:00 +30°C° 0 mm 3 m/s 616 mmHg 30%
12:00 +30°C° 0 mm 3 m/s 615 mmHg 31%
13:00 +30°C° 0 mm 3 m/s 615 mmHg 31%
14:00 +30°C° 0 mm 3 m/s 614 mmHg 31%
15:00 +28°C° 0 mm 3 m/s 613 mmHg 34%
16:00 +27°C° 0 mm 3 m/s 613 mmHg 38%
17:00 +26°C° 0 mm 3 m/s 612 mmHg 41%
18:00 +24°C° 0 mm 2 m/s 612 mmHg 45%
19:00 +23°C° 0 mm 2 m/s 613 mmHg 48%
20:00 +20°C° 0 mm 2 m/s 613 mmHg 52%
21:00 +19°C° 0 mm 2 m/s 613 mmHg 54%
22:00 +19°C° 0 mm 2 m/s 612 mmHg 56%
23:00 +19°C° 0 mm 1 m/s 612 mmHg 58%

Après-demain, 7 Mars, Dimanche

Heure Température Précipitation Vent Pression Humidité
00:00 +19°C° 0 mm 1 m/s 612 mmHg 58%
01:00 +18°C° 0 mm 1 m/s 611 mmHg 59%
02:00 +18°C° 0 mm 1 m/s 611 mmHg 60%
03:00 +16°C° 0 mm 1 m/s 611 mmHg 59%
04:00 +16°C° 0 mm 1 m/s 611 mmHg 59%
05:00 +16°C° 0 mm 1 m/s 611 mmHg 59%
06:00 +20°C° 0 mm 1 m/s 612 mmHg 51%
07:00 +22°C° 0 mm 1 m/s 614 mmHg 44%
08:00 +25°C° 0 mm 2 m/s 615 mmHg 36%
09:00 +27°C° 0 mm 2 m/s 615 mmHg 32%
10:00 +29°C° 0 mm 3 m/s 616 mmHg 27%
11:00 +32°C° 0 mm 4 m/s 616 mmHg 23%
12:00 +31°C° 0 mm 3 m/s 615 mmHg 22%
13:00 +31°C° 0 mm 3 m/s 614 mmHg 22%
14:00 +31°C° 0 mm 3 m/s 613 mmHg 21%
15:00 +30°C° 0 mm 3 m/s 613 mmHg 24%
16:00 +29°C° 0 mm 3 m/s 612 mmHg 26%
17:00 +28°C° 0 mm 3 m/s 612 mmHg 28%
18:00 +25°C° 0 mm 2 m/s 612 mmHg 34%
19:00 +23°C° 0 mm 2 m/s 612 mmHg 40%
20:00 +21°C° 0 mm 1 m/s 612 mmHg 46%
21:00 +20°C° 0 mm 1 m/s 612 mmHg 50%
22:00 +20°C° 0 mm 1 m/s 612 mmHg 54%
23:00 +19°C° 0 mm 1 m/s 612 mmHg 57%

8 Mars, Lundi

Heure Température Précipitation Vent Pression Humidité
00:00 +18°C° 0 mm 1 m/s 611 mmHg 58%
01:00 +18°C° 0 mm 1 m/s 611 mmHg 59%
02:00 +16°C° 0 mm 1 m/s 610 mmHg 60%
03:00 +16°C° 0 mm 1 m/s 610 mmHg 61%
04:00 +16°C° 0 mm 1 m/s 610 mmHg 62%
05:00 +15°C° 0 mm 1 m/s 610 mmHg 62%
06:00 +19°C° 0 mm 1 m/s 612 mmHg 55%
07:00 +22°C° 0 mm 1 m/s 613 mmHg 48%
08:00 +22°C° 0 mm 0 m/s 615 mmHg 41%
09:00 +26°C° 0 mm 1 m/s 615 mmHg 35%
10:00 +28°C° 0 mm 2 m/s 615 mmHg 30%
11:00 +30°C° 0 mm 3 m/s 615 mmHg 24%
12:00 +30°C° 0 mm 3 m/s 614 mmHg 24%
13:00 +30°C° 0 mm 3 m/s 614 mmHg 23%
14:00 +30°C° 0 mm 3 m/s 613 mmHg 22%
15:00 +29°C° 0 mm 3 m/s 613 mmHg 24%
16:00 +29°C° 0 mm 3 m/s 612 mmHg 25%
17:00 +28°C° 0 mm 3 m/s 612 mmHg 27%
18:00 +26°C° 0 mm 2 m/s 612 mmHg 32%
19:00 +24°C° 0 mm 2 m/s 612 mmHg 37%
20:00 +20°C° 0 mm 2 m/s 612 mmHg 42%
21:00 +21°C° 0 mm 1 m/s 612 mmHg 47%
22:00 +20°C° 0 mm 1 m/s 612 mmHg 53%
23:00 +19°C° 0 mm 1 m/s 612 mmHg 59%

9 Mars, Mardi

Heure Température Précipitation Vent Pression Humidité
00:00 +18°C° 0 mm 1 m/s 612 mmHg 61%
01:00 +18°C° 0 mm 1 m/s 611 mmHg 62%
02:00 +16°C° 0 mm 1 m/s 611 mmHg 64%
03:00 +16°C° 0 mm 1 m/s 611 mmHg 63%
04:00 +16°C° 0 mm 1 m/s 611 mmHg 63%
05:00 +16°C° 0 mm 1 m/s 611 mmHg 63%
06:00 +19°C° 0 mm 1 m/s 613 mmHg 55%
07:00 +22°C° 0 mm 1 m/s 614 mmHg 47%
08:00 +25°C° 0 mm 1 m/s 615 mmHg 39%
09:00 +27°C° 0 mm 2 m/s 616 mmHg 34%
10:00 +28°C° 0 mm 2 m/s 616 mmHg 28%
11:00 +30°C° 0 mm 3 m/s 616 mmHg 23%
12:00 +30°C° 0 mm 3 m/s 615 mmHg 23%
13:00 +30°C° 0 mm 3 m/s 614 mmHg 23%
14:00 +30°C° 0 mm 3 m/s 613 mmHg 23%
15:00 +29°C° 0 mm 3 m/s 613 mmHg 25%
16:00 +28°C° 0 mm 3 m/s 613 mmHg 27%
17:00 +28°C° 0 mm 3 m/s 613 mmHg 29%
18:00 +26°C° 0.1 mm 2 m/s 613 mmHg 34%
19:00 +24°C° 0.1 mm 2 m/s 613 mmHg 40%
20:00 +21°C° 0.1 mm 2 m/s 613 mmHg 46%
21:00 +20°C° 0 mm 2 m/s 613 mmHg 51%
22:00 +20°C° 0 mm 1 m/s 612 mmHg 57%
23:00 +19°C° 0 mm 1 m/s 612 mmHg 62%

10 Mars, Mercredi

Heure Température Précipitation Vent Pression Humidité
00:00 +18°C° 0 mm 1 m/s 612 mmHg 64%
01:00 +18°C° 0 mm 1 m/s 611 mmHg 65%
02:00 +16°C° 0 mm 1 m/s 611 mmHg 66%
03:00 +16°C° 0 mm 1 m/s 611 mmHg 67%
04:00 +16°C° 0 mm 1 m/s 611 mmHg 68%
05:00 +16°C° 0 mm 1 m/s 611 mmHg 68%
06:00 +19°C° 0 mm 1 m/s 613 mmHg 60%
07:00 +20°C° 0 mm 2 m/s 614 mmHg 52%
08:00 +24°C° 0 mm 2 m/s 615 mmHg 44%
09:00 +25°C° 0 mm 2 m/s 615 mmHg 39%
10:00 +27°C° 0 mm 3 m/s 615 mmHg 33%
11:00 +29°C° 0 mm 4 m/s 616 mmHg 28%
12:00 +29°C° 0 mm 3 m/s 615 mmHg 27%
13:00 +29°C° 0 mm 3 m/s 614 mmHg 27%
14:00 +29°C° 0 mm 3 m/s 613 mmHg 26%
15:00 +28°C° 0 mm 3 m/s 613 mmHg 28%
16:00 +27°C° 0 mm 3 m/s 613 mmHg 29%
17:00 +27°C° 0 mm 3 m/s 613 mmHg 30%
18:00 +25°C° 0 mm 3 m/s 613 mmHg 35%
19:00 +23°C° 0 mm 2 m/s 613 mmHg 40%
20:00 +21°C° 0 mm 2 m/s 612 mmHg 45%
21:00 +20°C° 0 mm 2 m/s 612 mmHg 50%
22:00 +20°C° 0 mm 1 m/s 612 mmHg 54%
23:00 +19°C° 0 mm 1 m/s 612 mmHg 59%
Voir plus

Nous avons besoin de votre consentement

Meteoprog et ses fournisseurs de services peuvent stocker et accéder à des données personnelles telles que des cookies, des identifiants d'appareils ou d'autres technologies similaires sur votre appareil et traiter ces données pour personnaliser le contenu et les publicités, ainsi que pour fournir des fonctionnalités de médias sociaux et analyser le trafic.

  • Stocker et/ou accéder à des informations sur votre appareil

    Des cookies, des identifiants d'appareils ou d'autres informations peuvent être stockés ou accessibles sur votre appareil aux fins indiquées ci-dessus.

  • Annonces et contenus personnalisés, mesure des annonces et des contenus, connaissance de l'audience et développement de produits

    Les annonces et le contenu peuvent être personnalisés en fonction d'un profil. D'autres données peuvent être ajoutées pour mieux personnaliser les annonces et le contenu. Les performances des publicités et du contenu peuvent être mesurées. Il est possible d'obtenir des informations sur le public qui a vu les publicités et le contenu. Ces données peuvent être utilisées pour développer ou améliorer l'expérience de l'utilisateur, les systèmes et les logiciels.

En cliquant sur "J'accepte", vous autorisez l'utilisation de cookies, des identifiants d'appareils, des balises web ou d'autres technologies similaires. Vos paramètres peuvent être modifiés dans le navigateur de votre appareil.

Dans certains cas, des intérêts légitimes peuvent être invoqués plutôt qu'un consentement. Vous pouvez en savoir plus à ce sujet dans notre Politique de confidentialité et de cookies.